Location: ??????
(38.0677°N, 22.9870°E)
Time: 11:01:25
(UTC+00:00)

ALOS - Pass Details

Date: 23 May 2024
Orbit: 672 x 676 km, 98.0° (Epoch: 23 June)

Event Time Altitude Azimuth Distance (km) Brightness Sun altitude
Rises 01:23:35 0° 9° (N) 3,033 6.5 -17.8°
Reaches altitude 10° 01:25:50 10° 7° (N) 2,114 5.6 -17.5°
Maximum altitude 01:30:25 69° 285° (WNW) 724 2.2 -16.9°
Enters shadow 01:32:45 28° 209° (SSW) 1,242 3.0 -16.6°
